Weather History for KTIF - November, 2012

Change the Weather History Date:

Sunday, November 4, 2012

  Actual Average (KLBF) Record (KLBF)
Temperature  
Mean Temperature 43 °F 41 °F  
Max Temperature 59 °F 56 °F 80 °F (1909)
Min Temperature 27 °F 26 °F 2 °F (1991)
Degree Days  
Heating Degree Days 22 24  
Month to date heating degree days 92  
Since 1 July heating degree days 761  
Cooling Degree Days 0 0  
Month to date cooling degree days 0  
Year to date cooling degree days 768  
Moisture  
Dew Point 32 °F    
Average Humidity 75    
Maximum Humidity 95    
Minimum Humidity 35    
Precipitation  
Precipitation 0.00 in 0.03 in 1.64 in (1922)
Month to date precipitation 0.12  
Year to date precipitation 19.30  
Snow  
Snow 0.00 in 0.10 in 2.10 in (1967)
Month to date snowfall 0.5  
Since 1 July snowfall 2.8  
Since 1 September snowfall 2.8  
Snow Depth -    
Sea Level Pressure  
Sea Level Pressure 30.09 in    
Wind  
Wind Speed 3 mph (NW)    
Max Wind Speed 15 mph    
Max Gust Speed 21 mph    
Visibility 10 miles    
Events Rain    
T = Trace of Precipitation, MM = Missing Value Source: NWS Daily Summary

Daily Weather History Graph

Daily Weather History Graph

Search for Another Location

Airport or City:

Trip Planner

Search our weather history database for the weather conditions in past years. The results will help you decide how hot, cold, wet, or windy it might be!

Date:

Astronomy

Nov. 04, 2012 Rise Set
Actual Time 7:19 AM CST 5:31 PM CST
Civil Twilight 6:49 AM CST 6:01 PM CST
Nautical Twilight 6:16 AM CST 6:34 PM CST
Astronomical Twilight 5:44 AM CST 7:06 PM CST
Moon 10:11 PM CST (11/4) 12:05 PM CST (11/4)
Length of Visible Light 11h 11m
Length of Day
10h 12m
Waning Gibbous, 72% of the Moon is Illuminated
Nov 4
Waning Gibbous
Nov 6
Last Quarter
Nov 13
New
Nov 20
First Quarter
Nov 28
Full

Hourly Weather History & Observations

Time (CST) Temp. Windchill Dew Point Humidity Pressure Visibility Wind Dir Wind Speed Gust Speed Precip Events Conditions
12:15 AM 35.6 °F - 32.0 °F 87% 30.12 in 10.0 mi Calm Calm - N/A   Clear
12:35 AM 33.8 °F - 31.1 °F 90% 30.11 in 10.0 mi Calm Calm - N/A   Clear
12:55 AM 35.1 °F - 32.0 °F 89% 30.11 in 10.0 mi Calm Calm - N/A   Clear
1:15 AM 32.0 °F - 29.3 °F 90% 30.10 in 10.0 mi Calm Calm - N/A   Clear
1:35 AM 29.8 °F - 28.0 °F 93% 30.11 in 10.0 mi Calm Calm - N/A   Clear
1:55 AM 30.6 °F - 28.9 °F 94% 30.11 in 10.0 mi Calm Calm - N/A   Clear
1:15 AM 29.3 °F - 27.9 °F 94% 30.10 in 7.0 mi Calm Calm - N/A   Clear
1:35 AM 29.5 °F 25.9 °F 28.2 °F 95% 30.09 in 10.0 mi West 3.5 mph - N/A   Clear
1:55 AM 29.1 °F - 27.5 °F 94% 30.09 in 10.0 mi Calm Calm - N/A   Clear
2:15 AM 27.5 °F - 26.1 °F 94% 30.09 in 10.0 mi Calm Calm - N/A   Clear
2:35 AM 27.1 °F - 25.7 °F 94% 30.09 in 10.0 mi Calm Calm - N/A   Clear
2:55 AM 27.3 °F - 25.9 °F 94% 30.10 in 10.0 mi Calm Calm - N/A   Clear
3:15 AM 27.5 °F 23.6 °F 26.2 °F 95% 30.09 in 10.0 mi WNW 3.5 mph - N/A   Clear
3:35 AM 27.0 °F - 25.7 °F 95% 30.09 in 10.0 mi Calm Calm - N/A   Clear
3:55 AM 27.7 °F 23.8 °F 26.4 °F 95% 30.08 in 10.0 mi West 3.5 mph - N/A   Clear
4:15 AM 28.4 °F - 27.0 °F 94% 30.08 in 10.0 mi Calm Calm - N/A   Clear
4:35 AM 27.1 °F - 25.7 °F 94% 30.08 in 10.0 mi Calm Calm - N/A   Clear
4:55 AM 27.9 °F - 26.6 °F 95% 30.08 in 10.0 mi Calm Calm - N/A   Clear
5:15 AM 27.5 °F 23.6 °F 26.1 °F 94% 30.08 in 10.0 mi West 3.5 mph - N/A   Clear
5:35 AM 28.9 °F 25.2 °F 27.3 °F 94% 30.08 in 10.0 mi WNW 3.5 mph - N/A   Clear
5:55 AM 29.5 °F - 28.2 °F 95% 30.08 in 10.0 mi Calm Calm - N/A   Clear
6:15 AM 29.7 °F - 28.0 °F 94% 30.08 in 10.0 mi Calm Calm - N/A   Clear
6:35 AM 29.1 °F - 27.7 °F 94% 30.08 in 10.0 mi Calm Calm - N/A   Clear
6:55 AM 29.8 °F - 28.4 °F 94% 30.08 in 10.0 mi Calm Calm - N/A   Clear
7:15 AM 29.5 °F - 27.9 °F 94% 30.08 in 10.0 mi Calm Calm - N/A   Clear
7:35 AM 30.4 °F - 28.6 °F 93% 30.08 in 10.0 mi Calm Calm - N/A   Clear
7:55 AM 30.7 °F - 28.9 °F 93% 30.08 in 10.0 mi Calm Calm - N/A   Clear
8:15 AM 31.8 °F - 30.0 °F 93% 30.08 in 10.0 mi Calm Calm - N/A   Clear
8:35 AM 32.4 °F - 30.9 °F 94% 30.08 in 10.0 mi Calm Calm - N/A   Clear
8:55 AM 33.8 °F 30.8 °F 32.0 °F 93% 30.08 in 10.0 mi WNW 3.5 mph - N/A   Clear
9:15 AM 36.3 °F 31.6 °F 33.1 °F 88% 30.08 in 10.0 mi WNW 5.8 mph - N/A   Clear
9:35 AM 39.9 °F 35.8 °F 34.9 °F 82% 30.07 in 10.0 mi WNW 5.8 mph - N/A   Clear
9:55 AM 43.2 °F 39.7 °F 34.9 °F 73% 30.07 in 10.0 mi WNW 5.8 mph - N/A   Clear
10:15 AM 45.3 °F 42.3 °F 34.7 °F 66% 30.07 in 10.0 mi WNW 5.8 mph - N/A   Clear
10:35 AM 46.8 °F - 35.2 °F 64% 30.07 in 10.0 mi WNW 3.5 mph - N/A   Scattered Clouds
10:55 AM 48.9 °F - 34.9 °F 58% 30.07 in 10.0 mi NW 4.6 mph - N/A   Scattered Clouds
11:15 AM 50.0 °F - 33.6 °F 53% 30.07 in 10.0 mi NNW 4.6 mph - N/A   Scattered Clouds
11:35 AM 50.9 °F - 33.8 °F 52% 30.06 in 10.0 mi Calm Calm - N/A   Mostly Cloudy
11:55 AM 51.8 °F - 32.9 °F 49% 30.05 in 10.0 mi Calm Calm - N/A   Mostly Cloudy
12:15 PM 52.9 °F - 32.5 °F 46% 30.04 in 10.0 mi Calm Calm - N/A   Clear
12:35 PM 54.1 °F - 32.4 °F 44% 30.04 in 10.0 mi NW 5.8 mph - N/A   Scattered Clouds
12:55 PM 54.5 °F - 32.5 °F 43% 30.05 in 10.0 mi WNW 4.6 mph - N/A   Mostly Cloudy
1:15 PM 55.6 °F - 32.5 °F 42% 30.04 in 10.0 mi NW 3.5 mph - N/A   Overcast
1:35 PM 56.5 °F - 32.2 °F 40% 30.04 in 10.0 mi NW 5.8 mph - N/A   Overcast
1:55 PM 58.1 °F - 32.0 °F 37% 30.05 in 10.0 mi NW 6.9 mph - N/A   Overcast
2:15 PM 59.2 °F - 31.6 °F 35% 30.05 in 10.0 mi NNW 10.4 mph 17.3 mph N/A   Overcast
2:35 PM 56.3 °F - 33.1 °F 41% 30.05 in 10.0 mi North 6.9 mph - N/A Rain Light Rain
2:55 PM 56.8 °F - 34.9 °F 44% 30.06 in 10.0 mi North 9.2 mph - N/A Rain Light Rain
3:15 PM 53.6 °F - 36.5 °F 52% 30.07 in 10.0 mi North 10.4 mph 16.1 mph N/A   Overcast
3:35 PM 52.9 °F - 36.5 °F 54% 30.08 in 10.0 mi North 15.0 mph 20.7 mph N/A   Overcast
3:55 PM 52.3 °F - 37.4 °F 57% 30.08 in 10.0 mi NNW 11.5 mph - N/A   Overcast
4:15 PM 51.8 °F - 37.6 °F 58% 30.09 in 10.0 mi NNW 11.5 mph - N/A   Overcast
4:35 PM 51.8 °F - 37.8 °F 59% 30.08 in 10.0 mi NW 6.9 mph - N/A   Mostly Cloudy
4:55 PM 51.8 °F - 37.9 °F 59% 30.09 in 10.0 mi NNW 8.1 mph - N/A   Scattered Clouds
5:15 PM 51.3 °F - 37.8 °F 60% 30.09 in 10.0 mi NW 5.8 mph - N/A   Scattered Clouds
5:35 PM 48.9 °F - 37.2 °F 64% 30.10 in 10.0 mi NW 4.6 mph - N/A   Clear
5:55 PM 47.3 °F - 36.9 °F 67% 30.10 in 10.0 mi WNW 5.8 mph - N/A   Scattered Clouds
6:15 PM 45.0 °F 41.8 °F 36.3 °F 72% 30.10 in 10.0 mi WNW 5.8 mph - N/A   Clear
6:35 PM 44.6 °F 40.7 °F 36.0 °F 72% 30.11 in 10.0 mi West 6.9 mph - N/A   Clear
6:55 PM 43.9 °F 39.9 °F 35.6 °F 73% 30.11 in 10.0 mi West 6.9 mph - N/A   Clear
7:15 PM 44.2 °F 40.3 °F 35.8 °F 72% 30.12 in 10.0 mi WNW 6.9 mph - N/A   Mostly Cloudy
7:35 PM 43.3 °F 39.9 °F 35.2 °F 73% 30.12 in 10.0 mi WNW 5.8 mph - N/A   Scattered Clouds
7:55 PM 43.5 °F 39.4 °F 35.8 °F 74% 30.12 in 10.0 mi WNW 6.9 mph - N/A   Mostly Cloudy
8:15 PM 43.7 °F 39.1 °F 35.6 °F 73% 30.11 in 10.0 mi West 8.1 mph - N/A   Mostly Cloudy
8:35 PM 42.1 °F 38.4 °F 34.7 °F 75% 30.11 in 10.0 mi West 5.8 mph - N/A   Scattered Clouds
8:55 PM 44.1 °F 39.5 °F 35.2 °F 71% 30.13 in 10.0 mi NNW 8.1 mph - N/A   Clear
9:15 PM 41.9 °F 39.0 °F 34.3 °F 75% 30.13 in 10.0 mi NW 4.6 mph - N/A   Clear
9:35 PM 40.1 °F 34.7 °F 34.0 °F 79% 30.13 in 10.0 mi West 8.1 mph - N/A   Clear
9:55 PM 39.6 °F 34.0 °F 34.2 °F 81% 30.13 in 10.0 mi WNW 8.1 mph - N/A   Clear
10:15 PM 40.5 °F 35.8 °F 34.2 °F 78% 30.13 in 10.0 mi WNW 6.9 mph - N/A   Clear
10:35 PM 38.3 °F 31.9 °F 33.1 °F 81% 30.14 in 10.0 mi WNW 9.2 mph - N/A   Clear
10:55 PM 39.2 °F 33.0 °F 33.8 °F 81% 30.14 in 10.0 mi WNW 9.2 mph - N/A   Clear